Wind_Speed
13 14 15 16 17 17 17 16 15 14 12 11 11 10 10 10 11 12 13 13 13 15 16 16 16 15 14 14 14 14 13 12 12 12 12 13 13 14 15 17 18 18 17
13 14 15 17 17 18 17 16 15 14 12 11 10 9 9 9 10 11 13 14 14 15 16 17 17 16 16 15 15 14 13 13 12 13 13 14 14 14 15 16 16 16 16
13 14 15 17 17 18 17 17 15 14 12 11 10 9 8 7 9 10 12 13 14 15 17 18 18 17 17 16 16 15 15 14 13 14 15 15 15 15 16 16 16 15 15
13 15 16 16 18 18 18 17 16 15 13 11 9 8 6 6 7 8 11 12 14 15 17 18 18 18 18 18 17 16 15 15 15 14 15 16 16 16 16 16 16 15 15
13 15 16 17 17 17 18 17 16 15 13 11 9 7 5 5 5 7 10 12 13 15 17 18 19 19 19 19 19 17 17 16 16 15 16 17 17 16 16 16 16 16 15
13 15 16 16 17 18 18 17 16 15 13 11 8 6 5 4 4 6 8 10 12 14 15 17 19 20 20 20 20 19 18 17 17 17 16 18 18 18 17 17 16 16 15
13 14 16 16 17 17 18 17 16 14 13 11 9 7 5 3 3 5 6 9 11 13 15 16 19 21 21 21 21 20 20 19 18 18 18 19 19 19 18 18 17 17 16
13 14 15 16 16 17 17 16 15 14 13 12 10 8 5 4 3 3 5 8 10 12 15 16 17 20 20 21 22 22 21 21 20 20 20 20 20 20 19 19 18 17 17
13 14 15 16 16 17 17 16 15 14 13 12 11 9 6 4 3 2 4 6 9 11 13 16 18 19 20 22 23 23 23 22 22 21 21 22 22 21 21 20 19 18 17
13 14 15 16 16 17 17 16 15 14 13 12 11 9 7 5 3 2 3 5 7 10 12 15 17 18 19 21 22 24 24 23 23 23 22 22 23 23 22 21 20 19 19
13 14 14 15 16 16 16 16 16 15 14 12 11 10 8 6 4 2 2 4 5 8 11 13 16 17 19 21 22 23 25 25 24 24 24 24 24 24 23 23 22 21 21
13 13 14 15 15 16 16 15 16 15 14 13 11 10 9 7 5 4 2 3 4 6 9 11 14 16 18 20 22 24 25 25 25 25 26 26 25 25 25 24 23 22 21
13 13 14 14 15 15 15 15 15 15 14 14 12 11 10 9 7 5 3 3 4 6 8 10 12 15 17 19 22 23 25 26 26 26 26 27 27 26 26 26 25 24 23
14 14 14 14 15 15 15 15 15 15 15 14 14 12 11 10 8 6 5 5 5 7 8 11 12 14 16 18 20 22 24 26 27 27 27 28 28 28 27 27 27 26 25
14 14 14 15 15 15 16 16 16 16 15 15 15 14 13 12 10 9 7 7 7 8 9 11 12 14 16 18 20 21 23 24 26 27 28 29 29 29 29 28 28 28 28
14 14 15 15 15 16 16 16 16 16 16 16 16 16 14 13 12 11 10 9 9 9 10 11 13 15 16 18 20 21 23 24 26 27 28 29 30 30 29 29 29 29 29
16 15 15 15 16 16 16 17 17 17 17 17 17 17 16 15 14 13 12 12 11 11 11 12 14 16 17 18 19 20 22 23 25 27 29 30 30 30 29 29 29 29 29
17 17 17 17 17 17 17 18 18 18 18 18 18 18 18 17 17 15 15 15 14 14 14 14 15 16 17 18 20 21 22 23 25 27 29 30 30 30 31 31 30 31 31
18 18 18 18 19 19 20 20 20 20 20 21 20 20 20 20 20 19 18 18 17 17 16 17 17 18 19 20 21 23 24 25 26 27 29 31 31 31 32 32 32 32 32
19 19 19 19 20 20 21 22 22 22 23 23 24 24 23 23 22 22 22 21 21 20 19 19 19 20 21 21 23 24 25 26 28 29 30 31 32 32 33 33 33 33 33
21 21 21 21 21 22 23 24 24 25 25 26 26 27 27 27 26 25 25 24 23 23 23 22 22 22 23 23 25 25 26 27 28 29 30 31 32 32 32 33 33 34 34
23 23 23 23 24 25 25 26 27 28 28 29 30 30 31 30 30 29 28 28 27 27 26 25 25 25 26 26 27 28 28 29 30 31 31 32 32 33 33 32 33 33 34
26 26 26 27 27 28 29 30 31 32 32 33 33 34 34 34 33 32 31 31 31 31 30 29 28 28 28 29 29 30 30 30 31 32 32 33 33 33 33 34 34 33 33
29 29 30 30 31 32 33 34 35 36 37 37 38 38 39 38 37 36 35 35 34 34 34 34 33 32 32 32 32 32 32 32 33 33 34 34 34 34 34 34 35 34 34
32 32 33 33 35 36 37 38 39 40 41 42 43 43 43 43 42 41 40 39 37 37 37 38 37 36 36 35 35 35 35 35 35 35 36 35 36 36 35 34 35 35 35
35 36 37 37 38 40 41 43 44 45 46 46 47 47 47 47 46 45 44 43 42 41 41 40 40 39 39 38 38 37 37 37 37 36 37 37 36 36 36 36 35 35 35
Wind_Direction
353 353 353 353 351 349 347 343 339 333 325 319 308 293 279 266 253 243 237 232 225 221 216 210 208 206 204 201 198 194 192 189 186 184 179 175 172 166 161 163 167 170 171
354 354 353 353 352 352 350 348 344 340 331 322 314 304 286 268 253 245 234 229 221 216 212 208 205 205 204 200 197 197 194 191 190 187 180 175 175 170 165 163 165 167 172
355 354 354 354 354 354 353 352 350 347 339 328 319 310 294 271 252 243 231 225 219 213 209 207 206 206 204 202 200 199 197 195 191 190 189 181 177 175 173 171 172 171 174
356 355 355 356 356 355 355 355 353 350 346 337 327 316 301 277 253 241 229 223 218 213 209 207 207 206 204 203 201 201 199 197 195 190 189 183 180 180 179 178 178 178 177
355 357 357 358 357 357 358 359 357 355 352 348 340 329 312 285 263 245 229 222 217 213 209 207 208 206 205 204 204 202 201 200 199 196 193 189 185 185 184 183 183 182 180
356 358 359 359 360 359 360 1 2 1 1 0 355 344 327 295 267 246 225 218 217 212 209 209 210 209 208 207 206 206 204 203 202 200 198 194 191 191 191 190 190 189 186
359 359 360 359 360 1 2 3 4 6 8 8 6 358 348 320 277 240 225 219 217 213 210 209 210 210 210 209 208 208 207 207 206 205 202 200 196 196 198 198 196 195 195
359 359 0 1 1 2 4 6 7 10 13 14 14 11 3 346 309 244 231 225 219 215 214 213 211 210 210 211 210 210 209 209 208 207 205 205 203 203 203 204 204 203 201
1 3 3 5 6 6 7 8 10 12 13 15 15 15 10 0 342 270 237 228 222 218 216 216 214 212 213 213 212 212 211 212 211 211 210 209 208 207 206 208 208 207 208
1 2 4 5 7 8 9 9 10 11 11 14 15 15 13 8 346 304 254 232 225 221 220 218 216 216 215 215 213 213 214 214 213 214 213 212 212 210 210 211 211 213 213
357 358 359 2 4 6 7 7 7 9 10 12 13 13 11 8 0 328 277 244 230 226 222 218 217 219 220 218 215 215 216 216 215 216 215 215 215 213 213 213 215 216 215
357 357 358 359 1 2 3 4 6 8 8 9 10 9 9 6 1 348 301 260 241 234 228 224 222 220 221 221 220 219 217 217 217 217 217 216 217 216 215 216 218 219 219
360 360 0 1 1 1 2 3 3 3 3 3 4 4 3 0 353 342 315 284 265 251 240 234 229 224 223 222 222 222 220 218 218 219 219 219 218 219 220 221 221 222 223
357 358 358 358 358 358 359 359 359 360 0 0 359 357 354 350 344 335 318 300 284 266 251 241 235 230 229 226 224 223 224 222 221 221 222 221 221 221 222 222 223 225 226
352 353 353 352 353 353 354 354 355 355 356 356 355 354 349 343 336 327 313 299 288 278 263 248 240 236 234 230 227 225 225 225 225 224 223 223 223 224 224 226 228 229 229
351 350 349 349 349 347 346 345 347 348 347 347 345 344 343 339 332 323 314 302 292 281 266 253 245 240 236 233 231 228 226 225 226 226 226 226 226 227 226 227 229 231 232
346 345 344 343 343 343 342 341 339 340 340 339 337 336 335 331 326 318 311 303 295 285 271 259 251 244 239 236 232 229 227 228 228 227 227 227 227 228 228 229 231 232 233
339 338 337 336 337 337 337 336 335 335 334 333 331 330 328 325 320 314 307 301 295 286 275 264 255 250 244 238 236 234 231 231 230 229 228 228 228 230 231 233 235 234 235
332 331 331 329 329 330 331 331 330 329 328 327 325 324 322 319 314 308 303 299 294 286 277 268 259 253 247 242 240 238 234 234 233 232 231 230 231 233 233 234 236 236 236
327 326 325 323 324 324 325 325 326 325 324 322 320 319 317 314 311 306 301 296 292 286 278 270 262 255 250 246 244 242 240 237 235 235 234 233 233 235 235 235 237 237 237
320 320 319 318 318 318 319 319 320 320 319 318 316 314 312 310 307 304 299 293 290 285 279 271 263 257 251 248 246 245 243 240 238 237 237 237 236 237 237 236 238 238 238
314 314 314 314 314 314 315 315 315 314 314 313 312 311 309 306 304 300 296 290 286 283 278 273 266 260 255 251 248 247 244 242 240 239 239 239 239 238 237 237 237 238 240
311 310 310 310 310 310 311 311 311 311 310 309 308 307 305 304 301 297 293 289 285 280 275 270 265 262 257 255 251 248 246 245 243 241 240 240 239 238 239 239 239 239 241
309 308 307 307 307 307 308 308 308 308 308 306 305 303 302 300 298 295 291 288 284 280 274 269 264 259 257 256 253 250 248 246 245 244 242 241 240 239 239 239 240 240 240
307 306 306 305 305 305 305 305 305 305 305 304 303 302 300 297 295 293 289 286 283 279 274 270 263 258 255 253 252 250 249 248 246 245 244 242 242 241 240 240 240 239 239
305 304 304 303 303 303 303 304 304 303 303 302 301 300 298 296 293 291 287 284 281 277 273 269 263 259 255 252 250 250 249 247 246 245 244 242 241 240 239 239 239 239 239
Height
5857 5855 5852 5849 5846 5842 5839 5836 5833 5830 5828 5826 5825 5824 5824 5824 5825 5827 5828 5830 5832 5835 5837 5840 5843 5845 5848 5850 5853 5855 5858 5860 5863 5864 5866 5868 5870 5872 5873 5875 5878 5881 5885
5856 5854 5851 5847 5844 5841 5837 5834 5831 5828 5826 5824 5823 5822 5821 5822 5823 5824 5825 5827 5830 5832 5834 5838 5841 5844 5846 5849 5852 5855 5857 5860 5862 5864 5866 5869 5871 5873 5875 5877 5880 5883 5885
5855 5852 5849 5846 5843 5839 5836 5832 5829 5826 5824 5822 5820 5819 5819 5819 5820 5821 5823 5825 5827 5830 5832 5836 5839 5842 5845 5848 5851 5854 5857 5859 5862 5864 5866 5868 5871 5874 5876 5878 5881 5883 5886
5854 5851 5848 5845 5841 5838 5834 5831 5827 5824 5822 5820 5818 5817 5817 5817 5818 5819 5820 5822 5825 5827 5830 5834 5837 5840 5843 5846 5850 5852 5855 5858 5861 5863 5866 5868 5871 5874 5876 5879 5881 5884 5886
5853 5850 5847 5844 5841 5837 5833 5830 5826 5823 5821 5818 5817 5816 5815 5815 5816 5817 5818 5820 5823 5825 5828 5831 5835 5838 5841 5845 5848 5851 5854 5857 5860 5862 5865 5868 5870 5873 5876 5879 5881 5884 5886
5852 5849 5846 5843 5840 5836 5833 5829 5826 5822 5820 5818 5816 5815 5814 5814 5815 5815 5817 5819 5821 5823 5826 5829 5833 5836 5839 5843 5846 5849 5852 5855 5858 5861 5864 5866 5869 5872 5875 5878 5881 5883 5885
5851 5849 5846 5842 5839 5836 5832 5829 5825 5822 5820 5817 5816 5815 5814 5814 5814 5814 5815 5817 5819 5822 5824 5827 5830 5834 5837 5840 5844 5847 5850 5853 5856 5859 5862 5865 5868 5871 5874 5877 5879 5882 5884
5851 5848 5845 5842 5839 5835 5832 5829 5825 5822 5820 5818 5816 5814 5814 5814 5813 5814 5814 5816 5817 5820 5822 5825 5828 5831 5834 5838 5841 5844 5848 5851 5854 5857 5860 5863 5866 5869 5872 5875 5878 5880 5883
5850 5848 5845 5842 5839 5835 5832 5829 5826 5823 5821 5818 5817 5815 5814 5813 5813 5813 5814 5815 5816 5818 5820 5823 5825 5828 5832 5835 5838 5841 5845 5848 5851 5854 5858 5861 5864 5867 5870 5873 5875 5878 5880
5850 5847 5845 5842 5839 5835 5832 5829 5826 5824 5821 5819 5817 5816 5815 5813 5813 5813 5813 5814 5815 5816 5818 5820 5823 5825 5828 5831 5835 5838 5841 5845 5848 5851 5854 5858 5861 5864 5867 5870 5873 5875 5878
5850 5847 5844 5842 5839 5836 5833 5830 5827 5824 5822 5820 5818 5816 5815 5814 5813 5813 5813 5813 5814 5815 5817 5818 5820 5823 5825 5828 5831 5834 5838 5841 5844 5848 5851 5854 5857 5860 5863 5866 5869 5872 5875
5850 5847 5844 5841 5839 5836 5833 5830 5827 5825 5822 5820 5818 5817 5815 5814 5813 5812 5812 5812 5813 5814 5815 5816 5818 5820 5822 5825 5827 5830 5834 5837 5840 5844 5847 5850 5853 5857 5860 5863 5866 5868 5871
5849 5846 5844 5841 5838 5836 5833 5830 5828 5825 5823 5820 5818 5817 5815 5814 5813 5812 5812 5812 5812 5812 5813 5814 5815 5817 5819 5821 5824 5826 5829 5833 5836 5839 5843 5846 5849 5852 5856 5858 5861 5864 5867
5848 5846 5843 5841 5838 5835 5833 5830 5828 5825 5823 5820 5818 5817 5815 5814 5813 5812 5812 5811 5811 5811 5811 5812 5812 5814 5816 5818 5820 5822 5825 5828 5832 5835 5838 5841 5845 5848 5851 5854 5857 5859 5862
5847 5845 5842 5840 5837 5835 5832 5830 5827 5825 5822 5820 5818 5816 5815 5813 5812 5811 5810 5810 5810 5809 5809 5809 5810 5811 5812 5814 5816 5818 5821 5824 5827 5830 5833 5836 5839 5842 5846 5849 5852 5854 5857
5846 5843 5841 5839 5836 5834 5831 5829 5827 5824 5822 5820 5817 5815 5814 5812 5811 5810 5809 5808 5807 5807 5806 5807 5807 5808 5809 5810 5812 5814 5816 5819 5821 5825 5828 5831 5834 5837 5840 5843 5846 5849 5851
5844 5841 5839 5837 5834 5832 5830 5827 5825 5823 5821 5818 5816 5814 5812 5810 5809 5808 5806 5805 5804 5804 5803 5803 5803 5804 5805 5806 5808 5810 5812 5814 5816 5819 5822 5825 5828 5831 5834 5837 5840 5843 5845
5842 5839 5836 5834 5832 5830 5828 5825 5823 5821 5819 5816 5814 5812 5810 5808 5806 5804 5803 5802 5801 5800 5800 5800 5800 5800 5801 5802 5803 5805 5807 5808 5811 5813 5816 5819 5822 5825 5828 5831 5833 5836 5839
5839 5836 5833 5831 5829 5827 5825 5822 5820 5818 5816 5813 5811 5809 5807 5804 5802 5801 5799 5798 5796 5795 5795 5795 5795 5795 5796 5797 5798 5799 5801 5803 5805 5807 5809 5812 5815 5818 5820 5823 5826 5829 5832
5836 5833 5830 5828 5826 5823 5821 5819 5816 5814 5812 5809 5807 5805 5802 5800 5798 5796 5794 5792 5791 5790 5789 5789 5789 5789 5790 5791 5792 5793 5794 5796 5798 5800 5802 5805 5807 5810 5813 5816 5819 5821 5824
5831 5829 5826 5823 5821 5819 5817 5815 5812 5810 5807 5805 5802 5799 5796 5794 5792 5789 5787 5786 5784 5783 5782 5782 5782 5783 5783 5784 5785 5786 5787 5789 5791 5793 5795 5798 5800 5803 5805 5807 5810 5813 5815
5827 5824 5821 5819 5816 5814 5811 5809 5807 5804 5801 5799 5796 5793 5790 5787 5784 5782 5780 5778 5777 5775 5774 5774 5774 5775 5776 5776 5777 5778 5779 5781 5783 5785 5787 5789 5791 5794 5796 5799 5801 5804 5807
5821 5818 5815 5812 5810 5807 5805 5802 5800 5797 5794 5791 5788 5785 5782 5778 5775 5773 5771 5769 5768 5766 5765 5765 5765 5766 5767 5768 5768 5769 5770 5772 5774 5776 5778 5780 5783 5785 5788 5790 5793 5795 5798
5815 5812 5808 5806 5803 5800 5797 5794 5792 5789 5785 5782 5778 5775 5771 5768 5764 5762 5761 5759 5757 5756 5755 5754 5755 5756 5757 5758 5759 5760 5761 5763 5765 5767 5769 5772 5774 5776 5778 5781 5783 5786 5788
5808 5804 5801 5798 5794 5791 5788 5785 5782 5779 5775 5771 5767 5763 5759 5755 5752 5749 5747 5746 5745 5744 5742 5742 5743 5744 5745 5747 5748 5749 5751 5753 5756 5757 5759 5762 5764 5766 5769 5771 5774 5776 5779
5799 5796 5792 5788 5785 5781 5777 5773 5770 5766 5763 5759 5754 5749 5744 5740 5737 5734 5732 5731 5730 5729 5728 5728 5729 5731 5732 5734 5736 5738 5740 5742 5745 5748 5749 5751 5754 5756 5759 5762 5764 5767 5769